Orbital Elements at Epoch 2459200.5 (2020-Dec-17.0) TDB
Reference: JPL 11 (heliocentric ecliptic J2000)
Element | Value | Uncertainty (1-sigma) | Units |
e | .1135211416334028 | 6.0156e-08 | |
a | 2.559846409173557 | 2.1746e-08 | au |
q | 2.269249722398008 | 1.5606e-07 | au |
i | 2.241104125302627 | 5.6764e-06 | deg |
node | 98.73015349906237 | 0.00018471 | deg |
peri | 285.4906692187637 | 0.0001879 | deg |
M | 317.1111168265359 | 4.102e-05 | deg |
tp | 2459378.722087447097 (2021-Jun-13.22208745) | 0.00017196 | TDB |
period | 1495.957617302836 4.10 | 1.9062e-05 5.219e-08 | d yr |
n | .2406485289663945 | 3.0664e-09 | deg/d |
Q | 2.850443095949105 | 2.4214e-08 | au |
|
| | Orbit Determination Parameters
Additional Information
|